Total_Precipitation_Accumulation
0.35 0.05 0.04 0.11 0.52 0.68 2.11 1.97 4.88 2.62 3.41 2.67 2.72 2.65 3.50 1.07 1.20 1.82 1.21 0.82 1.08 0.60 1.05 0.48 0.16 0.38 1.39 0.70 0.38 0.43 0.27 1.36 0.29 2.28 1.45 0.97 0.66 0.67 0.63 0.75 0.75 0.70 0.50 0.46 0.74 0.99 1.29 0.70 1.11 1.14 1.28 0.91 0.84 1.03 0.81 0.89 1.12 1.27 1.37 0.90 0.82 0.77 0.88 0.34 0.26 0.28 0.20 0.16 0.24 0.17 0.22 0.31 0.45 0.38 0.35 0.23 0.30 0.33 0.50 0.37 0.43 0.50 0.63 0.68 1.04 0.89 0.98 1.05 0.96 1.28 0.71 0.57 0.59 0.73 0.60 0.36 0.52
0.08 0.02 0.08 0.27 0.72 2.69 3.35 1.27 3.87 3.02 2.58 3.08 2.62 2.10 1.88 1.55 1.94 1.48 1.14 2.60 0.76 0.53 0.23 0.34 0.21 1.03 0.73 0.08 0.12 0.12 0.15 0.21 0.14 0.20 0.34 0.48 0.64 0.69 0.47 0.60 0.37 0.48 0.35 0.34 0.36 0.77 0.71 0.89 0.85 0.96 0.90 0.73 0.63 0.63 0.74 1.08 0.77 1.18 0.94 0.66 0.70 0.55 0.42 0.27 0.29 0.28 0.26 0.24 0.25 0.26 0.27 0.30 0.44 0.48 0.36 0.37 0.41 0.48 0.65 0.49 0.54 0.55 0.57 0.66 0.96 0.94 1.08 0.90 0.98 1.16 0.74 0.60 0.84 0.88 0.59 0.58 0.59
0.07 0.11 0.23 0.55 0.57 1.82 2.81 2.21 4.01 3.45 3.24 2.91 2.26 2.34 1.56 1.52 1.98 1.76 1.55 0.89 0.42 0.16 0.24 0.23 0.22 0.75 0.43 0.17 0.20 0.34 0.40 0.24 0.08 0.10 0.56 0.63 0.81 1.06 0.46 0.28 0.37 0.29 0.38 0.38 0.40 0.53 0.58 0.71 0.44 0.82 0.78 0.77 0.46 0.53 0.75 0.75 0.72 0.85 0.87 0.79 0.74 0.56 0.43 0.25 0.29 0.27 0.32 0.38 0.29 0.20 0.23 0.35 0.49 0.63 0.37 0.35 0.58 0.54 0.67 0.73 1.06 0.72 0.53 0.75 0.94 0.79 0.78 0.78 0.95 1.01 0.66 0.81 1.09 0.93 0.61 0.60 0.57
0.18 0.27 0.74 0.59 3.72 2.02 2.88 3.58 2.83 4.39 4.23 1.97 2.03 1.40 2.43 1.62 1.43 1.41 0.73 0.54 0.44 0.12 0.18 0.22 0.66 0.17 0.48 0.13 0.15 0.07 0.13 0.38 0.17 0.07 0.79 0.72 0.37 0.45 0.42 0.39 0.23 0.24 0.35 0.39 0.47 0.42 0.52 0.49 0.29 0.39 0.60 0.49 0.40 0.59 0.64 0.97 0.95 0.78 0.79 0.75 0.69 0.50 0.35 0.59 0.38 0.32 0.37 0.39 0.26 0.28 0.39 0.46 0.33 0.53 0.60 0.56 0.61 0.75 0.73 0.52 0.91 0.89 0.81 0.86 1.06 0.89 0.87 1.13 1.41 1.21 1.14 0.87 0.92 0.70 0.64 0.53 0.60
0.25 0.57 0.56 1.19 3.58 5.22 3.56 4.28 3.73 3.66 3.22 2.08 3.21 1.66 1.08 0.95 1.02 0.53 0.61 0.58 0.21 0.69 0.13 0.34 0.23 0.39 0.67 0.28 0.20 0.63 0.27 0.15 0.15 0.08 0.21 0.29 0.13 0.22 0.24 0.26 0.31 0.29 0.34 0.37 0.31 0.35 0.38 0.27 0.32 0.31 0.39 0.41 0.36 0.39 0.42 0.57 0.52 0.63 0.84 0.82 0.92 0.67 0.58 0.62 0.41 0.39 0.33 0.46 0.59 0.42 0.30 0.49 0.55 0.55 0.54 0.49 0.73 0.69 0.73 0.93 1.01 0.91 0.91 0.95 1.20 0.97 0.80 1.23 1.46 1.24 1.19 1.16 1.11 0.76 0.58 0.43 0.44
0.25 0.37 0.71 1.93 5.80 4.49 2.62 3.07 3.40 3.32 3.51 2.00 1.84 2.23 1.46 1.27 1.32 0.57 0.37 0.45 0.71 0.55 0.36 0.53 0.19 0.25 0.17 0.04 0.06 0.10 0.07 0.38 0.18 0.13 0.22 0.28 0.19 0.24 0.22 0.22 0.29 0.35 0.31 0.53 0.39 0.32 0.61 0.24 0.38 0.36 0.23 0.29 0.42 0.37 0.48 0.38 0.61 0.91 0.82 0.82 0.60 0.63 0.79 0.79 0.48 0.57 0.65 0.57 0.37 0.55 0.55 0.48 0.46 0.90 0.64 0.64 0.66 0.64 0.82 0.98 1.02 0.88 0.73 1.02 1.23 1.13 0.97 1.19 1.38 1.21 1.04 0.93 0.72 0.65 0.43 0.35 0.40
0.61 0.81 1.94 2.24 2.80 3.32 4.72 3.59 2.52 2.45 2.42 1.94 1.17 1.61 1.58 0.87 0.62 0.49 0.41 0.48 0.71 0.54 0.33 0.47 0.03 0.05 0.30 0.11 0.06 0.08 0.06 0.04 0.15 0.11 0.05 0.14 0.18 0.15 0.16 0.27 0.33 0.36 0.38 0.41 0.38 0.31 0.52 0.22 0.30 0.29 0.35 0.35 0.33 0.36 0.58 0.51 0.46 0.54 0.52 0.70 0.50 0.63 0.65 0.75 0.83 0.62 0.56 0.48 0.59 0.62 0.74 0.52 0.93 0.75 0.76 0.78 0.54 0.75 0.85 0.74 0.67 0.84 0.85 0.93 1.06 1.05 1.10 1.03 1.14 0.93 0.65 0.86 0.64 0.39 0.45 0.46 0.45
0.17 3.14 3.50 2.58 4.50 4.34 3.24 2.77 2.81 2.27 2.05 2.78 2.41 1.37 1.70 1.01 0.47 0.83 0.23 0.35 0.48 0.51 0.22 0.09 0.16 0.19 0.22 0.03 0.46 0.24 0.06 0.03 0.04 0.01 0.04 0.06 0.12 0.19 0.21 0.22 0.38 0.35 0.37 0.31 0.33 0.38 0.41 0.24 0.22 0.31 0.41 0.55 0.34 0.60 0.73 0.50 0.39 0.60 0.77 0.49 0.80 0.72 0.91 0.82 0.72 0.62 0.64 0.54 0.54 0.61 0.58 0.68 0.81 1.00 1.02 0.67 0.69 0.77 0.67 0.95 0.75 0.80 0.48 0.77 0.98 1.13 0.84 0.99 0.55 0.90 0.83 0.79 0.46 0.43 0.51 0.59 0.26
1.09 2.12 3.00 2.20 3.92 4.22 3.25 3.76 3.44 2.76 2.46 2.19 2.54 1.32 0.98 1.19 0.47 0.67 0.49 0.22 0.25 0.15 0.09 0.12 0.09 0.30 0.48 0.22 0.38 0.32 0.15 0.06 0.01 0.02 0.03 0.07 0.15 0.18 0.17 0.21 0.26 0.38 0.30 0.27 0.31 0.33 0.56 0.15 0.19 0.17 0.40 0.50 0.42 0.74 0.75 0.49 0.73 0.65 0.73 0.78 0.80 0.77 0.90 1.09 0.85 0.75 0.87 0.75 0.81 0.83 1.01 0.78 0.77 0.90 1.12 0.84 0.75 0.75 0.72 0.81 0.75 0.79 0.64 0.71 0.84 1.09 0.61 0.73 0.61 0.64 0.58 0.51 0.34 0.41 0.35 0.39 0.21
2.59 1.48 5.36 3.22 3.36 4.87 3.06 2.21 3.00 3.05 3.08 2.35 2.14 1.52 1.46 0.84 0.57 1.35 0.46 0.16 0.48 0.12 0.17 0.09 0.06 0.46 0.17 0.30 0.23 0.22 0.19 0.03 0.01 0.03 0.07 0.06 0.08 0.10 0.12 0.18 0.18 0.19 0.29 0.33 0.29 0.47 0.29 0.33 0.18 0.24 0.33 0.44 0.68 0.78 0.68 0.86 0.81 0.82 1.01 0.84 0.82 0.74 0.80 0.85 0.89 0.89 0.77 0.68 0.79 0.80 0.92 0.97 0.91 0.90 0.89 0.70 0.66 0.73 0.79 0.79 0.84 0.60 0.52 0.55 0.77 0.78 0.57 0.60 0.57 0.46 0.41 0.30 0.26 0.37 0.35 0.23 0.27
3.63 2.11 2.09 4.18 3.45 3.79 3.43 2.31 2.16 3.04 2.58 1.80 1.47 1.20 0.80 1.05 0.92 0.65 0.62 0.37 0.04 0.12 0.09 0.07 0.18 0.13 0.10 0.33 0.41 0.22 0.07 0.02 0.02 0.08 0.08 0.05 0.06 0.11 0.13 0.21 0.16 0.14 0.21 0.35 0.24 0.38 0.43 0.49 0.30 0.35 0.34 0.50 0.56 0.73 1.06 1.35 1.05 1.07 0.94 0.63 0.62 0.65 0.67 0.97 1.07 0.97 0.75 0.83 0.87 1.00 1.26 1.38 1.09 1.15 0.86 0.90 0.71 0.74 0.74 0.89 0.79 0.87 0.73 0.65 0.61 0.65 0.59 0.40 0.52 0.47 0.41 0.35 0.37 0.40 0.36 0.27 0.27
2.94 2.29 3.92 4.38 3.33 3.90 3.97 3.63 2.16 2.55 2.26 1.74 1.88 1.91 1.00 0.97 0.60 0.65 0.70 0.21 0.12 0.04 0.09 0.09 0.24 0.07 0.13 0.16 0.44 0.50 0.09 0.05 0.05 0.03 0.07 0.05 0.09 0.09 0.12 0.12 0.13 0.19 0.16 0.27 0.24 0.28 0.40 0.50 0.65 0.67 0.48 0.46 0.64 0.67 0.86 1.07 0.89 1.03 0.75 0.78 0.91 0.88 1.00 0.96 1.00 0.99 0.96 0.85 0.89 1.18 1.47 1.36 1.14 0.92 0.96 0.87 0.81 0.82 0.86 0.74 0.68 0.90 1.06 0.61 0.39 0.42 0.51 0.72 0.69 0.47 0.51 0.75 0.35 0.24 0.29 0.24 0.33
2.23 2.47 4.14 3.49 3.27 3.85 2.84 2.50 3.57 2.26 1.79 2.18 1.71 1.34 1.37 1.28 1.50 0.51 0.84 0.26 0.11 0.05 0.06 0.23 0.02 0.03 0.08 0.15 0.39 0.21 0.17 0.09 0.04 0.02 0.04 0.05 0.06 0.09 0.08 0.11 0.13 0.10 0.17 0.12 0.31 0.39 0.40 0.32 0.52 0.77 0.52 0.39 0.83 0.82 0.98 1.01 1.12 1.01 0.70 0.96 0.89 1.20 1.24 1.11 1.19 1.00 0.80 0.76 0.97 1.40 1.15 1.37 1.19 1.00 1.01 1.25 0.98 1.00 0.73 0.64 0.94 0.99 0.86 1.01 0.48 0.46 0.50 0.61 0.80 0.73 0.54 0.44 0.30 0.28 0.23 0.24 0.24
2.02 2.73 3.61 3.82 1.98 3.45 3.26 2.72 2.36 2.05 2.98 1.23 2.65 1.50 1.47 1.10 0.73 0.57 0.47 0.26 0.12 0.20 0.04 0.09 0.04 0.04 0.25 0.06 0.88 0.34 0.17 0.09 0.03 0.04 0.04 0.06 0.05 0.07 0.07 0.09 0.11 0.12 0.15 0.18 0.28 0.37 0.50 0.59 0.59 0.57 0.73 1.01 1.35 0.87 0.90 0.86 0.80 1.00 0.65 0.86 1.26 1.33 1.15 1.30 0.81 0.87 1.02 0.83 1.20 1.18 1.28 1.16 1.05 1.34 1.09 1.19 1.05 0.77 0.76 0.62 0.80 1.06 0.71 1.01 0.69 0.42 0.46 0.50 0.49 0.53 0.37 0.32 0.35 0.35 0.36 0.29 0.33
1.56 1.65 3.66 2.53 2.69 1.88 1.90 2.86 1.87 1.52 2.56 1.45 1.88 1.85 1.13 1.18 1.46 1.09 0.71 0.45 0.41 0.12 0.03 0.02 0.04 0.07 0.20 0.04 0.21 0.10 0.09 0.07 0.03 0.03 0.05 0.06 0.05 0.07 0.06 0.11 0.11 0.13 0.15 0.23 0.22 0.55 0.66 0.53 0.78 0.77 0.86 0.95 0.82 0.83 0.79 1.03 1.06 0.95 0.86 0.81 1.09 1.26 1.20 1.29 0.90 0.75 0.80 0.91 0.93 1.40 1.11 1.15 1.27 1.34 1.17 0.98 1.03 0.84 0.53 0.61 0.75 0.57 0.73 0.78 0.81 0.56 0.47 0.51 0.57 0.65 0.38 0.34 0.36 0.30 0.37 0.34 0.26
1.44 1.91 3.05 2.79 2.97 1.79 1.45 2.51 1.53 1.89 1.38 1.43 1.74 1.40 1.32 0.75 0.70 1.05 0.62 0.97 0.59 0.02 0.01 0.16 0.01 0.15 0.07 0.03 0.01 0.01 0.01 0.03 0.04 0.04 0.07 0.09 0.11 0.10 0.12 0.13 0.20 0.25 0.19 0.25 0.31 0.28 0.80 0.67 0.65 0.79 0.81 0.66 0.92 1.02 1.15 1.12 0.82 0.75 0.77 1.00 0.96 1.12 0.99 1.07 0.93 0.69 0.80 0.86 1.28 1.19 1.19 1.23 1.60 1.52 1.38 1.31 1.41 0.92 0.70 0.85 0.80 0.55 0.67 0.62 0.70 0.58 0.54 0.56 0.66 0.55 0.45 0.32 0.42 0.28 0.21 0.29 0.28
1.43 1.38 2.79 2.62 2.71 2.30 1.69 1.97 1.46 2.88 1.08 1.12 1.29 1.03 0.65 0.73 0.65 0.90 0.65 0.55 0.26 0.12 0.05 0.00 0.10 0.01 0.00 0.01 0.01 0.00 0.03 0.02 0.03 0.05 0.06 0.17 0.17 0.31 0.37 0.31 0.30 0.37 0.38 0.36 0.31 0.64 0.61 0.53 0.72 0.93 0.63 0.63 0.72 0.62 0.70 0.90 0.72 1.02 0.77 1.15 1.23 0.96 1.05 1.08 0.97 0.99 0.97 1.04 1.21 1.39 1.00 0.76 1.10 1.15 1.04 1.07 0.75 0.80 0.69 0.63 0.55 0.64 0.70 0.63 0.62 0.53 0.65 0.59 0.49 0.87 0.52 0.47 0.54 0.44 0.32 0.28 0.29
0.97 2.23 2.37 2.63 2.85 3.00 2.06 2.49 1.88 1.21 1.75 0.72 1.23 1.40 1.14 0.78 0.40 0.57 0.32 0.56 0.63 0.39 0.08 0.04 0.01 0.00 0.00 0.00 0.00 0.00 0.02 0.02 0.05 0.05 0.09 0.14 0.14 0.22 0.28 0.30 0.24 0.34 0.30 0.42 0.42 0.54 0.58 0.65 0.53 0.55 0.64 0.68 0.58 0.69 0.93 0.88 0.98 1.09 1.02 0.91 0.96 0.83 1.14 1.42 1.01 0.66 1.06 1.22 1.13 0.86 0.79 0.87 1.11 1.19 0.94 0.90 1.08 0.79 0.69 0.69 0.55 0.31 0.49 0.66 0.60 0.63 0.60 0.68 0.71 0.60 0.63 0.48 0.54 0.47 0.25 0.28 0.42
2.16 1.22 2.49 3.80 2.44 2.72 1.91 2.02 1.38 1.85 1.33 1.18 1.61 1.19 1.37 0.95 1.11 0.50 0.58 0.27 0.59 0.38 0.24 0.02 0.02 0.01 0.00 0.00 0.00 0.01 0.03 0.03 0.03 0.03 0.05 0.04 0.07 0.06 0.09 0.16 0.16 0.22 0.28 0.32 0.67 0.84 0.62 0.47 0.63 0.58 0.31 0.47 0.57 0.55 0.61 0.66 0.84 0.87 0.97 0.79 0.82 1.03 0.96 0.57 0.72 0.86 0.82 0.82 0.87 0.93 1.16 0.96 0.58 0.90 1.06 0.82 0.66 0.52 0.53 0.44 0.68 0.51 0.54 0.50 0.60 0.82 0.81 0.71 0.92 0.79 0.98 0.62 0.36 0.25 0.35 0.25 0.45
0.94 2.05 2.73 2.54 2.36 2.71 2.10 1.86 1.85 2.09 0.64 1.05 1.31 1.42 1.87 0.82 0.55 0.15 0.92 0.39 0.25 0.27 0.04 0.04 0.02 0.01 0.01 0.01 0.00 0.03 0.03 0.02 0.02 0.01 0.02 0.02 0.03 0.04 0.07 0.08 0.13 0.07 0.13 0.16 0.24 0.51 0.52 0.62 0.41 0.19 0.29 0.29 0.36 0.50 0.55 0.78 0.69 1.37 0.91 0.60 0.98 0.53 0.54 0.48 0.56 0.80 0.80 1.22 0.99 1.11 0.83 1.04 0.92 0.91 0.54 0.56 0.37 0.30 0.44 0.31 0.55 0.64 0.68 0.59 0.43 0.50 0.42 0.40 0.59 0.60 0.90 0.58 0.59 0.55 0.63 0.65 0.56
1.10 1.45 1.90 2.55 1.73 2.20 2.28 2.26 1.62 1.52 1.25 0.98 0.93 0.87 0.70 0.68 1.09 0.98 0.50 0.20 0.41 0.09 0.06 0.03 0.01 0.01 0.01 0.00 0.00 0.01 0.02 0.03 0.04 0.02 0.01 0.03 0.02 0.02 0.05 0.03 0.09 0.07 0.08 0.13 0.23 0.33 0.29 0.41 0.33 0.37 0.29 0.38 0.49 0.55 0.67 0.74 0.78 0.69 0.51 0.62 1.21 1.07 0.71 0.41 0.50 0.60 0.67 0.74 1.04 0.89 1.07 0.78 0.56 0.49 0.61 0.67 0.74 0.48 0.53 0.59 0.47 0.62 0.72 0.86 0.47 0.66 0.58 0.54 0.58 0.81 1.56 1.27 0.73 0.69 0.56 0.50 0.63
0.21 1.51 1.19 1.31 1.38 2.10 2.46 2.95 1.83 1.31 1.34 1.09 1.04 0.84 1.29 0.51 0.44 0.92 0.98 0.96 0.42 0.13 0.04 0.01 0.00 0.00 0.00 0.00 0.00 0.00 0.01 0.01 0.01 0.02 0.01 0.00 0.01 0.01 0.04 0.03 0.05 0.04 0.07 0.13 0.16 0.33 0.32 0.36 0.20 0.26 0.28 0.43 0.56 0.60 0.47 0.40 0.36 0.48 0.64 0.74 0.80 0.61 0.71 0.45 0.57 0.53 0.64 1.06 1.34 0.58 0.57 0.90 0.72 0.90 0.43 0.36 0.36 0.42 0.32 0.71 0.59 0.51 0.44 0.55 0.53 0.64 0.47 0.38 0.51 0.47 0.80 0.81 1.09 0.68 0.52 0.60 0.48
1.81 1.19 0.82 1.59 1.04 2.16 1.65 2.69 2.22 2.02 1.46 1.44 0.85 1.44 0.97 0.36 0.34 0.21 0.77 1.43 0.70 0.13 0.02 0.00 0.00 0.01 0.00 0.00 0.00 0.01 0.01 0.01 0.00 0.01 0.01 0.01 0.01 0.01 0.01 0.04 0.06 0.05 0.05 0.07 0.11 0.37 0.24 0.24 0.19 0.22 0.28 0.30 0.44 0.43 0.38 0.37 0.66 0.43 0.66 0.93 0.65 1.04 0.37 0.35 0.49 0.88 0.92 0.88 0.92 0.82 1.00 0.98 0.80 0.47 0.50 0.46 0.54 0.63 0.59 0.51 0.40 0.47 0.39 0.46 0.42 0.37 0.31 0.54 0.55 0.66 0.55 0.90 0.69 0.52 0.73 0.83 0.60
0.37 1.20 0.59 1.01 1.24 1.95 1.57 2.32 2.02 2.61 1.68 1.28 0.98 0.79 0.76 0.30 0.70 0.55 1.04 0.35 0.26 0.30 0.03 0.01 0.00 0.00 0.00 0.00 0.00 0.00 0.00 0.00 0.00 0.01 0.00 0.01 0.00 0.00 0.00 0.03 0.01 0.02 0.03 0.03 0.13 0.16 0.16 0.22 0.16 0.20 0.20 0.21 0.26 0.26 0.27 0.38 0.65 0.55 0.36 0.82 0.62 0.34 0.55 0.38 0.55 0.85 0.80 1.06 0.92 0.88 0.82 0.86 0.76 0.66 0.46 0.44 0.67 0.48 0.35 0.58 0.53 0.53 0.51 0.55 0.41 0.32 0.42 0.39 0.50 0.61 0.37 0.91 0.73 0.58 0.36 0.69 0.77
0.74 0.80 0.77 1.05 1.54 1.76 1.81 1.49 2.20 2.06 1.79 1.33 0.69 0.73 0.98 1.03 0.87 0.36 0.53 0.12 0.21 0.16 0.06 0.01 0.00 0.00 0.00 0.00 0.00 0.00 0.01 0.01 0.01 0.00 0.01 0.00 0.01 0.01 0.02 0.01 0.01 0.01 0.02 0.04 0.09 0.09 0.09 0.09 0.21 0.15 0.15 0.18 0.27 0.51 0.59 0.46 0.32 0.56 0.44 0.39 0.35 0.66 0.54 0.66 0.64 0.72 0.66 0.82 0.76 1.22 0.48 0.71 0.51 0.75 0.53 0.29 0.61 1.43 1.44 0.88 0.76 0.59 0.20 0.34 0.51 0.78 0.53 0.51 0.76 0.73 0.82 0.93 0.96 0.67 0.63 0.43 0.20
0.22 0.50 0.62 0.83 1.15 1.46 1.81 1.66 2.22 2.54 1.52 1.31 0.99 0.99 1.34 1.36 0.66 0.84 0.18 0.19 0.12 0.15 0.01 0.01 0.00 0.00 0.00 0.00 0.00 0.00 0.00 0.00 0.00 0.00 0.01 0.00 0.00 0.01 0.01 0.00 0.01 0.01 0.02 0.03 0.08 0.07 0.10 0.08 0.10 0.14 0.13 0.29 0.35 0.33 0.29 0.29 0.32 0.42 0.23 0.14 0.25 0.43 0.56 0.56 0.70 0.82 0.62 0.43 0.81 0.83 0.64 0.72 0.54 0.84 0.34 0.80 0.67 1.04 1.04 0.48 0.44 0.32 0.23 0.32 0.24 0.62 0.39 0.50 0.81 0.70 1.10 0.87 0.66 0.51 0.43 0.42 0.51
0.09 0.47 0.47 1.18 1.38 1.47 2.21 1.50 1.70 2.18 2.31 1.49 0.88 0.47 0.67 0.56 0.35 0.98 0.13 0.04 0.04 0.22 0.07 0.02 0.00 0.00 0.00 0.00 0.00 0.00 0.00 0.00 0.00 0.00 0.00 0.00 0.00 0.00 0.00 0.00 0.00 0.01 0.03 0.05 0.06 0.09 0.08 0.07 0.10 0.24 0.50 0.39 0.32 0.29 0.16 0.15 0.18 0.15 0.14 0.23 0.26 0.50 0.54 0.53 0.59 0.44 0.38 0.40 0.68 0.67 0.77 0.91 0.69 0.56 0.34 0.60 1.02 1.14 0.61 0.36 0.57 0.47 0.29 0.35 0.43 0.32 0.24 0.43 0.67 0.42 0.40 0.39 0.54 0.50 0.38 0.16 0.27
0.35 0.46 0.15 0.86 1.74 2.20 1.86 1.42 1.89 2.45 3.06 2.22 2.06 1.53 0.84 0.79 0.37 0.54 0.07 0.05 0.04 0.08 0.04 0.02 0.00 0.00 0.00 0.00 0.00 0.00 0.00 0.00 0.00 0.00 0.00 0.00 0.00 0.01 0.00 0.02 0.01 0.01 0.02 0.04 0.04 0.04 0.06 0.06 0.14 0.26 0.26 0.29 0.19 0.17 0.12 0.17 0.10 0.12 0.14 0.11 0.15 0.30 0.40 0.40 0.64 0.25 0.18 0.33 0.49 0.47 0.36 0.45 0.94 0.61 0.40 0.88 0.98 0.68 0.58 0.49 0.39 0.29 0.21 0.24 0.29 0.30 0.31 0.15 0.36 0.31 0.33 0.60 0.68 0.42 0.47 0.52 0.38
0.09 0.38 0.57 1.29 2.66 3.00 2.31 2.34 2.14 2.00 2.75 2.12 2.45 1.77 1.14 0.52 1.33 0.38 0.14 0.15 0.07 0.04 0.01 0.00 0.00 0.00 0.00 0.00 0.00 0.00 0.00 0.00 0.00 0.00 0.00 0.00 0.00 0.00 0.00 0.00 0.02 0.00 0.01 0.05 0.02 0.04 0.06 0.05 0.07 0.12 0.18 0.13 0.10 0.09 0.09 0.08 0.09 0.11 0.10 0.13 0.13 0.53 0.13 0.26 0.63 0.23 0.17 0.24 0.34 0.13 0.23 0.35 0.55 0.26 0.39 0.41 0.61 0.28 0.30 0.34 0.24 0.29 0.33 0.37 0.39 0.46 0.30 0.33 0.37 0.39 0.47 0.61 0.58 0.39 0.30 0.37 0.48
0.52 0.46 0.64 0.87 2.07 1.63 2.74 2.96 2.70 2.63 2.45 3.03 1.98 2.14 1.21 1.48 0.61 0.38 0.38 0.07 0.12 0.06 0.02 0.03 0.01 0.00 0.00 0.00 0.00 0.00 0.00 0.00 0.00 0.00 0.00 0.00 0.00 0.00 0.02 0.01 0.01 0.02 0.01 0.02 0.03 0.04 0.04 0.05 0.05 0.08 0.07 0.08 0.08 0.06 0.05 0.06 0.06 0.09 0.12 0.08 0.17 0.20 0.43 0.23 0.12 0.10 0.08 0.09 0.07 0.11 0.10 0.12 0.17 0.19 0.20 0.23 0.24 0.32 0.20 0.26 0.37 0.26 0.46 0.57 0.35 0.86 0.62 0.60 0.41 0.69 0.49 0.60 0.41 0.48 0.45 0.29 0.25
0.96 1.34 0.54 0.73 0.75 1.32 2.92 2.95 2.28 2.77 2.42 2.96 1.86 2.03 1.19 1.45 0.66 0.24 0.16 0.12 0.05 0.09 0.05 0.03 0.03 0.01 0.01 0.00 0.01 0.01 0.00 0.00 0.00 0.00 0.00 0.00 0.00 0.00 0.02 0.00 0.01 0.01 0.00 0.01 0.02 0.03 0.04 0.03 0.03 0.04 0.05 0.07 0.07 0.08 0.05 0.05 0.05 0.13 0.07 0.07 0.39 0.22 0.29 0.33 0.24 0.02 0.04 0.03 0.02 0.13 0.17 0.05 0.14 0.27 0.23 0.25 0.11 0.26 0.21 0.22 0.47 0.30 0.42 0.40 0.30 0.38 0.55 0.40 0.45 0.69 0.93 0.60 0.59 0.26 0.23 0.20 0.20
0.65 0.59 0.93 1.40 0.64 1.99 2.44 2.77 2.05 2.32 1.78 2.20 1.46 1.99 1.37 1.22 0.80 0.98 0.28 0.10 0.05 0.26 0.14 0.10 0.01 0.01 0.01 0.02 0.02 0.03 0.03 0.00 0.00 0.00 0.00 0.00 0.00 0.00 0.01 0.00 0.00 0.01 0.00 0.02 0.03 0.02 0.02 0.05 0.06 0.02 0.03 0.03 0.06 0.03 0.04 0.03 0.05 0.07 0.06 0.07 0.05 0.15 0.11 0.16 0.58 0.10 0.09 0.04 0.06 0.12 0.14 0.09 0.10 0.30 0.26 0.22 0.24 0.26 0.37 0.28 0.55 0.58 0.27 0.27 0.29 0.29 0.31 0.37 0.30 0.39 0.48 0.60 0.34 0.17 0.13 0.08 0.02
0.57 0.64 0.65 0.93 0.48 1.51 1.67 2.63 3.11 2.29 1.64 2.05 2.14 2.71 1.58 1.90 0.95 0.55 0.19 0.37 0.06 0.09 0.20 0.08 0.03 0.01 0.00 0.00 0.03 0.03 0.02 0.02 0.00 0.00 0.00 0.02 0.00 0.00 0.02 0.01 0.00 0.00 0.03 0.02 0.03 0.02 0.02 0.02 0.03 0.02 0.02 0.01 0.04 0.02 0.03 0.04 0.07 0.04 0.05 0.05 0.09 0.30 0.18 0.10 0.07 0.07 0.06 0.07 0.05 0.03 0.12 0.13 0.08 0.21 0.24 0.31 0.27 0.35 0.39 0.33 0.28 0.24 0.38 0.27 0.25 0.28 0.40 0.26 0.36 0.34 0.48 0.53 0.21 0.34 0.09 0.05 0.14
0.52 0.60 0.91 1.09 0.82 0.77 1.12 1.69 2.23 2.22 1.82 2.50 1.53 2.14 1.47 0.75 0.29 0.32 0.34 0.16 0.17 0.03 0.07 0.08 0.04 0.03 0.02 0.02 0.01 0.01 0.05 0.05 0.04 0.02 0.02 0.01 0.01 0.02 0.02 0.03 0.03 0.05 0.01 0.03 0.02 0.01 0.00 0.02 0.02 0.01 0.01 0.02 0.02 0.04 0.03 0.02 0.09 0.05 0.04 0.17 0.05 0.06 0.07 0.05 0.04 0.06 0.06 0.06 0.19 0.27 0.13 0.15 0.16 0.18 0.35 0.46 0.42 0.21 0.16 0.35 0.23 0.19 0.23 0.19 0.27 0.40 0.42 0.28 0.15 0.28 0.53 0.39 0.16 0.18 0.13 0.04 0.01
0.44 0.82 0.62 0.40 0.82 0.35 1.07 0.80 1.75 1.58 2.60 2.33 1.85 1.90 1.58 1.15 0.56 0.63 0.51 0.63 0.21 0.19 0.10 0.06 0.08 0.08 0.03 0.03 0.01 0.04 0.04 0.04 0.05 0.02 0.02 0.01 0.00 0.01 0.01 0.01 0.01 0.00 0.01 0.01 0.02 0.00 0.01 0.03 0.02 0.01 0.01 0.02 0.02 0.02 0.03 0.05 0.04 0.07 0.05 0.14 0.09 0.07 0.11 0.07 0.04 0.09 0.05 0.11 0.15 0.13 0.09 0.13 0.23 0.20 0.17 0.18 0.14 0.19 0.15 0.30 0.27 0.20 0.19 0.19 0.19 0.30 0.35 0.30 0.20 0.21 0.24 0.19 0.09 0.13 0.11 0.03 0.04
0.40 0.55 1.05 1.24 0.70 1.41 0.98 0.87 1.44 0.98 1.85 2.02 2.04 2.12 2.02 1.29 0.88 0.78 0.55 0.40 0.34 0.65 0.16 0.28 0.22 0.37 0.11 0.08 0.04 0.04 0.06 0.07 0.01 0.07 0.02 0.00 0.01 0.01 0.01 0.01 0.00 0.01 0.02 0.01 0.01 0.01 0.01 0.02 0.01 0.03 0.02 0.02 0.02 0.03 0.04 0.04 0.04 0.08 0.04 0.08 0.07 0.09 0.07 0.13 0.07 0.04 0.16 0.30 0.14 0.10 0.08 0.16 0.10 0.13 0.12 0.13 0.13 0.13 0.16 0.27 0.28 0.23 0.22 0.27 0.31 0.47 0.26 0.39 0.27 0.22 0.20 0.20 0.21 0.13 0.11 0.10 0.08
0.23 0.54 0.49 0.58 0.75 0.83 1.26 1.60 1.16 1.43 2.44 1.68 2.29 2.25 2.20 1.56 0.85 1.17 0.52 0.31 0.38 0.42 0.67 0.41 0.22 0.33 0.36 0.31 0.12 0.06 0.07 0.05 0.02 0.03 0.04 0.01 0.01 0.00 0.00 0.00 0.01 0.01 0.01 0.00 0.00 0.00 0.01 0.01 0.01 0.02 0.01 0.01 0.02 0.02 0.03 0.06 0.09 0.06 0.04 0.03 0.09 0.09 0.07 0.08 0.05 0.09 0.17 0.20 0.14 0.06 0.10 0.09 0.11 0.16 0.15 0.10 0.07 0.12 0.26 0.28 0.28 0.16 0.18 0.26 0.22 0.22 0.51 0.28 0.23 0.19 0.18 0.16 0.19 0.09 0.04 0.03 0.02
0.11 0.25 0.38 0.42 0.57 1.02 1.21 1.34 2.23 3.55 2.25 2.68 2.68 2.14 2.68 2.28 1.51 1.55 0.78 0.70 0.50 0.33 0.28 0.71 0.52 0.22 0.17 0.22 0.43 0.26 0.07 0.02 0.03 0.03 0.02 0.05 0.04 0.00 0.00 0.00 0.00 0.01 0.02 0.00 0.01 0.01 0.01 0.02 0.01 0.02 0.05 0.01 0.01 0.02 0.06 0.03 0.04 0.06 0.03 0.07 0.06 0.07 0.09 0.11 0.06 0.07 0.22 0.08 0.06 0.08 0.10 0.12 0.12 0.10 0.15 0.22 0.19 0.24 0.27 0.19 0.12 0.23 0.15 0.27 0.28 0.22 0.34 0.26 0.17 0.23 0.15 0.34 0.21 0.09 0.03 0.02 0.01
0.21 0.23 0.30 0.48 1.06 1.09 1.39 1.78 3.09 3.32 1.78 2.40 2.75 2.39 3.21 2.27 1.76 1.52 1.26 0.58 0.63 0.91 0.57 0.99 0.31 0.41 0.27 0.15 0.18 0.39 0.06 0.05 0.02 0.05 0.06 0.01 0.00 0.01 0.01 0.00 0.00 0.01 0.01 0.01 0.00 0.01 0.02 0.03 0.01 0.02 0.01 0.02 0.04 0.03 0.02 0.05 0.04 0.02 0.06 0.03 0.02 0.02 0.03 0.03 0.04 0.07 0.06 0.04 0.02 0.04 0.08 0.08 0.04 0.08 0.07 0.10 0.16 0.23 0.17 0.16 0.12 0.18 0.15 0.21 0.14 0.28 0.20 0.23 0.34 0.22 0.28 0.17 0.10 0.08 0.02 0.01 0.02
0.16 0.16 0.34 0.51 0.84 0.41 0.53 1.34 2.18 3.14 2.06 1.92 2.18 2.45 3.11 2.70 1.85 1.35 1.68 0.76 0.73 0.52 0.48 0.38 0.73 0.46 0.41 0.21 0.10 0.09 0.06 0.04 0.06 0.02 0.03 0.02 0.04 0.00 0.00 0.00 0.00 0.00 0.00 0.03 0.01 0.01 0.02 0.01 0.01 0.02 0.02 0.04 0.02 0.03 0.03 0.03 0.03 0.04 0.05 0.03 0.05 0.02 0.04 0.04 0.02 0.03 0.08 0.03 0.03 0.03 0.09 0.12 0.07 0.09 0.11 0.16 0.12 0.13 0.09 0.18 0.20 0.18 0.16 0.18 0.22 0.21 0.16 0.24 0.24 0.26 0.29 0.24 0.10 0.09 0.05 0.03 0.05
0.03 0.11 0.30 0.28 0.21 0.41 0.27 0.55 1.63 2.56 1.49 2.42 2.52 2.40 3.34 3.25 2.48 1.79 1.41 1.09 0.62 0.38 0.33 0.23 0.46 0.65 0.63 0.30 0.11 0.06 0.10 0.11 0.08 0.05 0.02 0.01 0.00 0.00 0.00 0.00 0.00 0.00 0.00 0.00 0.01 0.00 0.03 0.01 0.04 0.02 0.04 0.02 0.02 0.01 0.02 0.02 0.04 0.03 0.03 0.03 0.05 0.03 0.02 0.03 0.04 0.07 0.04 0.04 0.04 0.03 0.09 0.07 0.11 0.10 0.10 0.16 0.08 0.05 0.06 0.10 0.12 0.09 0.14 0.15 0.18 0.16 0.26 0.24 0.29 0.25 0.28 0.17 0.21 0.17 0.13 0.05 0.03
0.02 0.01 0.01 0.06 0.19 0.08 0.11 0.26 0.54 1.44 2.41 2.49 2.10 2.31 2.98 2.89 2.21 1.33 2.13 1.13 0.54 0.34 0.24 0.17 0.55 0.70 0.32 0.50 0.27 0.11 0.06 0.03 0.01 0.03 0.03 0.02 0.02 0.01 0.00 0.00 0.00 0.00 0.00 0.00 0.01 0.01 0.02 0.01 0.01 0.01 0.04 0.01 0.02 0.03 0.05 0.02 0.01 0.02 0.03 0.05 0.06 0.03 0.03 0.01 0.02 0.01 0.02 0.02 0.07 0.01 0.06 0.16 0.14 0.11 0.03 0.05 0.08 0.05 0.07 0.08 0.09 0.10 0.15 0.11 0.13 0.22 0.30 0.21 0.20 0.19 0.23 0.21 0.20 0.16 0.15 0.11 0.04
0.00 0.04 0.00 0.05 0.04 0.18 0.17 0.29 0.43 0.87 1.30 1.85 1.67 1.80 2.06 2.65 2.62 2.05 1.93 1.58 0.85 0.93 0.34 0.13 0.23 0.37 0.37 0.26 0.16 0.12 0.12 0.09 0.02 0.01 0.02 0.09 0.04 0.02 0.04 0.00 0.00 0.00 0.00 0.00 0.00 0.02 0.01 0.00 0.00 0.01 0.01 0.02 0.01 0.08 0.03 0.02 0.02 0.01 0.01 0.01 0.02 0.01 0.02 0.01 0.01 0.01 0.01 0.01 0.03 0.01 0.02 0.01 0.02 0.03 0.02 0.03 0.02 0.04 0.05 0.10 0.11 0.06 0.11 0.15 0.14 0.11 0.14 0.21 0.27 0.24 0.15 0.17 0.26 0.24 0.18 0.11 0.04
0.02 0.00 0.04 0.01 0.05 0.14 0.31 0.50 0.71 1.48 1.58 1.71 1.10 1.57 2.43 2.29 1.94 1.91 1.82 1.72 1.36 0.53 0.37 0.43 0.66 0.50 0.22 0.41 0.15 0.12 0.14 0.09 0.03 0.02 0.02 0.01 0.03 0.01 0.00 0.00 0.00 0.00 0.00 0.00 0.01 0.00 0.01 0.00 0.00 0.00 0.00 0.02 0.01 0.02 0.01 0.05 0.07 0.01 0.01 0.01 0.01 0.01 0.01 0.00 0.00 0.01 0.01 0.02 0.03 0.04 0.01 0.01 0.01 0.02 0.03 0.03 0.03 0.04 0.06 0.04 0.08 0.12 0.07 0.08 0.08 0.16 0.15 0.20 0.26 0.15 0.17 0.17 0.24 0.11 0.12 0.10 0.14
0.06 0.00 0.00 0.03 0.09 0.35 0.51 0.51 0.55 0.77 0.59 1.35 1.54 1.58 1.38 2.02 1.82 1.78 1.95 2.24 1.44 0.87 0.44 0.31 0.61 0.60 0.45 0.25 0.21 0.12 0.15 0.21 0.08 0.03 0.01 0.01 0.00 0.01 0.01 0.00 0.00 0.01 0.00 0.00 0.00 0.00 0.00 0.01 0.00 0.00 0.01 0.01 0.02 0.01 0.01 0.04 0.07 0.02 0.03 0.01 0.02 0.01 0.01 0.01 0.01 0.01 0.01 0.01 0.04 0.03 0.02 0.02 0.01 0.03 0.02 0.03 0.04 0.02 0.04 0.05 0.04 0.04 0.07 0.12 0.07 0.14 0.10 0.15 0.12 0.14 0.14 0.16 0.12 0.11 0.09 0.07 0.07
0.01 0.02 0.01 0.02 0.18 0.27 0.41 0.50 0.64 1.36 0.70 0.90 0.78 1.18 1.04 1.29 1.99 1.97 2.27 1.58 1.19 0.96 0.45 0.34 0.31 0.58 0.33 0.23 0.12 0.18 0.17 0.22 0.20 0.04 0.05 0.02 0.02 0.01 0.02 0.02 0.01 0.00 0.00 0.00 0.00 0.00 0.01 0.02 0.00 0.00 0.01 0.01 0.01 0.02 0.01 0.04 0.04 0.02 0.02 0.01 0.01 0.05 0.01 0.01 0.01 0.02 0.03 0.02 0.02 0.02 0.03 0.03 0.02 0.03 0.04 0.02 0.02 0.02 0.02 0.08 0.06 0.05 0.06 0.10 0.04 0.16 0.12 0.08 0.08 0.07 0.10 0.08 0.09 0.13 0.08 0.03 0.06
0.01 0.01 0.02 0.05 0.14 0.31 0.87 1.20 1.10 0.85 0.22 0.52 0.75 0.60 0.40 1.01 1.57 1.84 1.57 2.19 2.07 1.26 0.38 0.39 0.55 0.44 0.14 0.14 0.18 0.24 0.17 0.12 0.29 0.32 0.13 0.08 0.06 0.03 0.01 0.01 0.00 0.01 0.00 0.00 0.00 0.00 0.00 0.00 0.00 0.00 0.01 0.00 0.01 0.00 0.02 0.01 0.01 0.01 0.01 0.01 0.01 0.02 0.02 0.02 0.03 0.02 0.03 0.03 0.03 0.04 0.08 0.04 0.02 0.03 0.01 0.01 0.02 0.01 0.02 0.02 0.02 0.04 0.04 0.04 0.03 0.14 0.03 0.03 0.03 0.03 0.05 0.03 0.04 0.13 0.08 0.06 0.07
0.00 0.02 0.01 0.04 0.47 0.61 0.49 0.57 0.55 0.35 0.47 0.51 0.78 0.56 0.77 0.69 1.27 1.06 0.84 1.11 0.84 0.72 0.65 0.29 0.37 0.29 0.07 0.08 0.15 0.20 0.18 0.18 0.12 0.13 0.38 0.11 0.10 0.17 0.04 0.02 0.01 0.01 0.00 0.00 0.00 0.00 0.00 0.00 0.01 0.01 0.01 0.00 0.02 0.01 0.01 0.04 0.01 0.00 0.03 0.01 0.02 0.01 0.01 0.03 0.04 0.04 0.02 0.04 0.05 0.03 0.03 0.03 0.03 0.04 0.02 0.01 0.01 0.01 0.01 0.01 0.02 0.03 0.05 0.07 0.02 0.04 0.08 0.04 0.04 0.07 0.08 0.03 0.05 0.04 0.03 0.05 0.11
0.01 0.02 0.04 0.10 0.54 0.53 0.43 1.13 0.48 0.19 0.53 0.32 0.33 0.88 1.66 0.40 0.70 0.49 0.52 0.67 1.00 1.06 0.74 0.56 0.25 0.15 0.14 0.13 0.16 0.39 0.45 0.22 0.14 0.08 0.45 0.19 0.08 0.08 0.07 0.03 0.03 0.00 0.01 0.00 0.00 0.00 0.00 0.00 0.00 0.00 0.00 0.01 0.01 0.00 0.11 0.03 0.02 0.03 0.01 0.01 0.02 0.02 0.00 0.02 0.02 0.02 0.03 0.03 0.03 0.02 0.02 0.02 0.02 0.02 0.02 0.01 0.01 0.00 0.01 0.01 0.01 0.02 0.02 0.02 0.01 0.02 0.05 0.02 0.17 0.10 0.06 0.02 0.03 0.03 0.03 0.05 0.04
0.01 0.02 0.03 0.11 0.25 0.19 0.13 0.22 0.26 0.17 0.24 0.34 0.40 0.74 0.81 0.86 0.55 0.39 0.44 0.58 0.82 0.80 0.79 0.50 0.18 0.18 0.25 0.37 0.09 0.40 1.05 1.01 0.29 0.09 0.24 0.08 0.13 0.06 0.08 0.05 0.02 0.01 0.00 0.00 0.01 0.02 0.01 0.02 0.01 0.00 0.00 0.01 0.00 0.02 0.01 0.00 0.03 0.02 0.02 0.02 0.02 0.02 0.04 0.01 0.03 0.06 0.03 0.02 0.02 0.03 0.02 0.03 0.02 0.01 0.01 0.01 0.01 0.01 0.01 0.01 0.01 0.01 0.02 0.01 0.03 0.03 0.05 0.03 0.04 0.11 0.04 0.03 0.09 0.02 0.03 0.03 0.02
0.00 0.00 0.01 0.05 0.09 0.21 0.34 0.17 0.38 0.24 0.36 0.43 0.78 0.33 0.81 0.53 1.21 0.19 0.21 0.33 0.43 0.57 0.87 1.64 0.62 0.69 0.50 0.46 0.71 0.74 1.12 1.56 0.89 0.09 0.09 0.07 0.04 0.06 0.05 0.05 0.02 0.02 0.02 0.00 0.00 0.02 0.00 0.00 0.00 0.00 0.00 0.00 0.00 0.00 0.00 0.02 0.01 0.00 0.00 0.02 0.04 0.01 0.02 0.01 0.01 0.02 0.01 0.04 0.02 0.02 0.01 0.02 0.01 0.01 0.01 0.00 0.00 0.01 0.01 0.01 0.01 0.01 0.01 0.01 0.01 0.02 0.02 0.02 0.04 0.03 0.04 0.03 0.15 0.03 0.02 0.02 0.06
0.04 0.02 0.01 0.01 0.03 0.01 0.15 0.16 0.16 0.17 0.27 0.51 0.47 0.42 0.59 0.59 0.33 0.28 0.22 0.27 0.37 0.63 0.66 0.89 0.92 0.75 0.40 0.33 1.01 0.82 0.42 0.49 1.03 0.85 0.48 0.19 0.10 0.09 0.05 0.07 0.04 0.04 0.01 0.06 0.00 0.00 0.00 0.00 0.01 0.00 0.00 0.00 0.00 0.00 0.00 0.00 0.01 0.00 0.00 0.03 0.00 0.00 0.01 0.01 0.01 0.01 0.02 0.02 0.02 0.02 0.00 0.01 0.02 0.01 0.01 0.00 0.01 0.00 0.01 0.01 0.01 0.01 0.01 0.01 0.01 0.01 0.02 0.02 0.03 0.03 0.04 0.04 0.03 0.07 0.02 0.02 0.03
0.00 0.02 0.13 0.02 0.02 0.03 0.06 0.02 0.08 0.03 0.07 0.26 0.15 0.17 0.26 0.09 0.26 1.22 0.72 0.34 0.35 0.50 0.43 0.41 0.81 0.60 0.34 0.51 0.70 0.68 0.41 0.63 0.79 0.90 0.57 0.27 0.28 0.20 0.13 0.06 0.09 0.05 0.03 0.03 0.01 0.02 0.01 0.01 0.02 0.07 0.07 0.01 0.00 0.00 0.00 0.00 0.00 0.00 0.00 0.01 0.00 0.00 0.00 0.01 0.04 0.06 0.02 0.03 0.02 0.01 0.01 0.02 0.02 0.01 0.00 0.00 0.05 0.00 0.01 0.01 0.01 0.01 0.01 0.01 0.01 0.01 0.01 0.02 0.05 0.03 0.04 0.04 0.02 0.03 0.04 0.05 0.04
0.01 0.03 0.02 0.00 0.00 0.01 0.01 0.14 0.05 0.05 0.06 0.25 0.09 0.21 0.17 0.09 0.55 0.26 0.44 0.37 0.51 0.63 0.37 0.14 0.37 0.39 0.35 0.25 0.19 0.23 0.25 0.60 0.76 1.00 1.00 0.81 0.85 0.89 0.50 0.38 0.18 0.11 0.03 0.08 0.04 0.02 0.01 0.04 0.01 0.03 0.03 0.05 0.04 0.00 0.00 0.00 0.00 0.00 0.00 0.00 0.01 0.04 0.00 0.00 0.02 0.03 0.01 0.01 0.03 0.03 0.02 0.01 0.01 0.01 0.02 0.01 0.00 0.00 0.01 0.01 0.01 0.01 0.01 0.01 0.01 0.01 0.01 0.02 0.04 0.03 0.04 0.06 0.03 0.06 0.07 0.03 0.02
0.03 0.06 0.02 0.03 0.40 0.17 0.01 0.07 0.15 0.11 0.15 0.19 0.09 0.20 0.27 0.20 0.33 0.13 0.15 0.43 0.78 0.79 0.53 0.31 0.24 0.53 0.37 0.17 0.27 0.29 0.21 0.34 0.35 0.45 0.35 0.28 0.31 0.35 0.22 0.68 0.70 0.53 0.45 0.39 0.07 0.03 0.06 0.13 0.06 0.02 0.01 0.11 0.05 0.07 0.01 0.00 0.00 0.00 0.00 0.00 0.00 0.02 0.04 0.02 0.02 0.03 0.01 0.01 0.02 0.00 0.02 0.01 0.00 0.00 0.00 0.00 0.02 0.00 0.01 0.01 0.01 0.01 0.01 0.01 0.01 0.01 0.01 0.01 0.02 0.02 0.03 0.10 0.06 0.04 0.05 0.07 0.07
0.01 0.00 0.02 0.00 0.04 0.13 0.32 0.04 0.29 0.08 0.31 0.10 0.69 0.36 0.52 0.59 0.44 0.13 0.18 0.38 0.42 0.24 0.25 0.26 0.43 0.37 0.38 0.23 0.17 0.16 0.16 0.18 0.19 0.30 0.35 0.42 0.38 0.27 0.65 0.38 0.81 0.99 0.37 0.15 0.15 0.34 0.37 0.30 0.28 0.27 0.30 0.11 0.06 0.11 0.01 0.00 0.00 0.00 0.00 0.00 0.00 0.00 0.01 0.01 0.01 0.01 0.02 0.00 0.00 0.00 0.02 0.06 0.02 0.00 0.00 0.00 0.01 0.03 0.06 0.00 0.02 0.00 0.01 0.00 0.00 0.01 0.01 0.02 0.02 0.01 0.03 0.02 0.05 0.04 0.04 0.04 0.05
0.00 0.01 0.04 0.00 0.00 0.06 0.05 0.12 0.07 0.11 0.14 0.18 0.36 0.29 0.27 0.36 0.86 0.69 0.59 0.59 0.36 0.19 0.17 0.20 0.39 0.42 0.39 0.30 0.20 0.26 0.33 0.10 0.11 0.10 0.14 0.29 0.28 0.21 0.21 0.65 0.57 0.70 0.72 0.34 0.24 0.53 0.35 0.24 0.28 0.25 0.09 0.13 0.15 0.10 0.28 0.08 0.01 0.00 0.00 0.00 0.00 0.00 0.00 0.02 0.03 0.01 0.01 0.01 0.00 0.00 0.01 0.03 0.01 0.01 0.01 0.01 0.00 0.00 0.01 0.01 0.00 0.02 0.02 0.01 0.01 0.02 0.01 0.01 0.02 0.03 0.02 0.02 0.02 0.04 0.04 0.02 0.03
0.05 0.04 0.11 0.12 0.01 0.07 0.01 0.13 0.00 0.10 0.16 0.12 0.22 0.29 0.26 0.08 0.08 0.14 0.50 0.23 0.19 0.13 0.08 0.18 0.62 0.56 0.79 0.56 0.43 0.26 0.18 0.17 0.07 0.05 0.11 0.11 0.23 0.22 0.34 0.40 0.38 0.55 0.57 0.37 0.28 0.21 0.34 0.61 1.09 1.10 1.11 1.10 1.04 0.27 0.12 0.18 0.35 0.04 0.00 0.00 0.00 0.00 0.00 0.00 0.01 0.01 0.01 0.02 0.00 0.00 0.00 0.00 0.00 0.02 0.02 0.00 0.02 0.03 0.05 0.01 0.00 0.00 0.02 0.04 0.03 0.02 0.04 0.01 0.01 0.01 0.04 0.02 0.03 0.02 0.03 0.02 0.02